| time (UTC) | temp F | wind direction | speed knots | gust knots | rain 1hr in | rain 24hr in | rain mn in | humidity % | barometer mb |
| 20260504202522 | 63 | 0 | 0.0 | 0.0 | 0.00 | 0.06 | 0.06 | 62 | 1010.7 |
| 20260504201622 | 63 | 0 | 0.9 | 0.0 | 0.00 | 0.06 | 0.06 | 62 | 1010.7 |
| 20260504200722 | 63 | 1 | 1.7 | 3.5 | 0.00 | 0.06 | 0.06 | 62 | 1010.6 |
| 20260504195822 | 63 | 1 | 0.9 | 3.5 | 0.00 | 0.06 | 0.06 | 63 | 1010.6 |
| 20260504194922 | 63 | 1 | 0.9 | 2.6 | 0.00 | 0.06 | 0.06 | 62 | 1010.5 |
| 20260504194022 | 63 | 1 | 1.7 | 4.3 | 0.00 | 0.06 | 0.06 | 63 | 1010.4 |
| 20260504193122 | 63 | 1 | 2.6 | 4.3 | 0.00 | 0.06 | 0.06 | 63 | 1010.1 |
| 20260504192222 | 64 | 1 | 3.5 | 5.2 | 0.00 | 0.06 | 0.06 | 63 | 1009.9 |
| 20260504190422 | 64 | 1 | 2.6 | 5.2 | 0.00 | 0.06 | 0.06 | 63 | 1009.5 |
| 20260504185522 | 64 | 1 | 2.6 | 5.2 | 0.00 | 0.06 | 0.06 | 63 | 1009.4 |
| 20260504182822 | 64 | 1 | 3.5 | 7.0 | 0.00 | 0.06 | 0.06 | 61 | 1009.2 |
| 20260504181022 | 64 | 1 | 4.3 | 9.6 | 0.00 | 0.06 | 0.06 | 61 | 1009.3 |
| 20260504175222 | 64 | 1 | 3.5 | 7.8 | 0.00 | 0.06 | 0.06 | 60 | 1009.3 |
| 20260504173422 | 65 | 1 | 2.6 | 6.1 | 0.01 | 0.06 | 0.06 | 61 | 1009.3 |
| 20260504172522 | 65 | 1 | 3.5 | 7.8 | 0.01 | 0.06 | 0.06 | 61 | 1009.4 |
| 20260504171622 | 65 | 1 | 3.5 | 7.0 | 0.02 | 0.06 | 0.06 | 61 | 1009.4 |
| 20260504170722 | 64 | 1 | 3.5 | 7.8 | 0.05 | 0.06 | 0.06 | 61 | 1009.5 |
| 20260504151022 | 67 | 1 | 7.8 | 17.4 | 0.00 | 0.00 | 0.00 | 74 | 1009.8 |
| 20260504140721 | 70 | 1 | 7.8 | 13.9 | 0.00 | 0.00 | 0.00 | 70 | 1009.6 |
| 20260504120121 | 69 | 1 | 6.1 | 10.4 | 0.00 | 0.00 | 0.00 | 75 | 1010.9 |
| 20260504110721 | 69 | 1 | 5.2 | 13.0 | 0.00 | 0.00 | 0.00 | 72 | 1011.2 |
| 20260504100421 | 70 | 1 | 5.2 | 12.2 | 0.00 | 0.00 | 0.00 | 70 | 1011.2 |
| 20260504090121 | 70 | 1 | 2.6 | 5.2 | 0.00 | 0.00 | 0.00 | 64 | 1010.8 |
| 20260504081620 | 68 | 1 | 6.1 | 11.3 | 0.00 | 0.00 | 0.00 | 70 | 1010.9 |
| 20260504080720 | 68 | 1 | 7.0 | 10.4 | 0.00 | 0.00 | 0.00 | 71 | 1011.0 |
| 20260504050720 | 58 | 1 | 3.5 | 6.1 | 0.00 | 0.00 | 0.00 | 70 | 1011.5 |
| 20260504045820 | 58 | 1 | 3.5 | 5.2 | 0.00 | 0.00 | 0.00 | 71 | 1011.6 |
| 20260504044920 | 59 | 1 | 2.6 | 7.0 | 0.00 | 0.00 | 0.00 | 70 | 1011.6 |
| 20260504044020 | 59 | 1 | 2.6 | 7.0 | 0.00 | 0.00 | 0.00 | 69 | 1011.6 |
| 20260504043120 | 59 | 1 | 2.6 | 5.2 | 0.00 | 0.00 | 0.00 | 69 | 1011.6 |
| 20260504042220 | 59 | 1 | 3.5 | 5.2 | 0.00 | 0.00 | 0.00 | 70 | 1011.7 |
| 20260504041320 | 59 | 1 | 3.5 | 7.0 | 0.00 | 0.00 | 0.00 | 70 | 1011.8 |
| 20260504040420 | 59 | 1 | 3.5 | 6.1 | 0.00 | 0.00 | 0.00 | 70 | 1011.9 |
| 20260504035520 | 59 | 1 | 2.6 | 4.3 | 0.00 | 0.00 | 0.00 | 70 | 1011.9 |
| 20260504033720 | 59 | 1 | 2.6 | 4.3 | 0.00 | 0.00 | 0.00 | 71 | 1012.1 |
| 20260504032820 | 59 | 1 | 1.7 | 3.5 | 0.00 | 0.00 | 0.00 | 71 | 1012.1 |
| 20260504031920 | 59 | 1 | 1.7 | 3.5 | 0.00 | 0.00 | 0.00 | 72 | 1012.3 |
| 20260504031020 | 59 | 1 | 1.7 | 3.5 | 0.00 | 0.00 | 0.00 | 72 | 1012.4 |
| 20260504030120 | 60 | 1 | 1.7 | 2.6 | 0.00 | 0.00 | 0.00 | 72 | 1012.3 |
| 20260504025220 | 60 | 1 | 0.9 | 3.5 | 0.00 | 0.00 | 0.00 | 72 | 1012.3 |
| 20260504024320 | 60 | 1 | 1.7 | 3.5 | 0.00 | 0.00 | 0.00 | 72 | 1012.4 |
| 20260504023419 | 60 | 1 | 0.9 | 4.3 | 0.00 | 0.00 | 0.00 | 73 | 1012.4 |
| 20260504022519 | 60 | 1 | 1.7 | 3.5 | 0.00 | 0.00 | 0.00 | 73 | 1012.5 |
| 20260504021619 | 60 | 1 | 1.7 | 3.5 | 0.00 | 0.00 | 0.00 | 74 | 1012.4 |
| 20260504020719 | 60 | 1 | 1.7 | 4.3 | 0.00 | 0.00 | 0.00 | 74 | 1012.5 |
| 20260504015819 | 60 | 1 | 1.7 | 4.3 | 0.00 | 0.00 | 0.00 | 74 | 1012.7 |
| 20260504014019 | 60 | 1 | 1.7 | 2.6 | 0.00 | 0.00 | 0.00 | 75 | 1012.7 |
| 20260504012219 | 60 | 1 | 1.7 | 2.6 | 0.00 | 0.00 | 0.00 | 75 | 1012.7 |
| 20260504011319 | 60 | 1 | 2.6 | 5.2 | 0.00 | 0.00 | 0.00 | 75 | 1012.8 |
| 20260504010419 | 60 | 1 | 2.6 | 3.5 | 0.00 | 0.00 | 0.00 | 74 | 1012.9 |
| 20260504004619 | 60 | 1 | 3.5 | 6.1 | 0.00 | 0.00 | 0.00 | 75 | 1013.0 |
| 20260504003719 | 60 | 1 | 2.6 | 5.2 | 0.00 | 0.00 | 0.00 | 75 | 1013.0 |
| 20260504001919 | 60 | 1 | 2.6 | 5.2 | 0.00 | 0.00 | 0.00 | 74 | 1013.1 |
| 20260504001019 | 60 | 1 | 2.6 | 5.2 | 0.00 | 0.00 | 0.00 | 74 | 1013.2 |
| 20260504000119 | 61 | 1 | 2.6 | 5.2 | 0.00 | 0.00 | 0.00 | 74 | 1013.2 |
| 20260503235219 | 61 | 1 | 3.5 | 5.2 | 0.00 | 0.00 | 0.00 | 75 | 1013.3 |
| 20260503234319 | 61 | 1 | 3.5 | 6.1 | 0.00 | 0.00 | 0.00 | 75 | 1013.4 |
| 20260503233419 | 61 | 1 | 3.5 | 5.2 | 0.00 | 0.00 | 0.00 | 75 | 1013.4 |
| 20260503232519 | 61 | 1 | 3.5 | 5.2 | 0.00 | 0.00 | 0.00 | 75 | 1013.5 |
| 20260503231619 | 61 | 1 | 3.5 | 5.2 | 0.00 | 0.00 | 0.00 | 76 | 1013.5 |
| 20260503230719 | 61 | 1 | 2.6 | 5.2 | 0.00 | 0.00 | 0.00 | 76 | 1013.6 |
| 20260503225819 | 61 | 1 | 2.6 | 5.2 | 0.00 | 0.00 | 0.00 | 76 | 1013.8 |
| 20260503224919 | 61 | 1 | 2.6 | 5.2 | 0.00 | 0.00 | 0.00 | 76 | 1014.0 |
| 20260503224019 | 61 | 1 | 2.6 | 4.3 | 0.00 | 0.00 | 0.00 | 76 | 1014.0 |
| 20260503223119 | 61 | 1 | 2.6 | 4.3 | 0.00 | 0.00 | 0.00 | 76 | 1014.2 |
| 20260503221319 | 62 | 1 | 2.6 | 5.2 | 0.00 | 0.00 | 0.00 | 77 | 1014.3 |
| 20260503214619 | 62 | 1 | 2.6 | 5.2 | 0.00 | 0.00 | 0.00 | 77 | 1014.4 |
| 20260503213719 | 62 | 1 | 4.3 | 7.0 | 0.00 | 0.00 | 0.00 | 77 | 1014.4 |
| 20260503210119 | 62 | 1 | 4.3 | 8.7 | 0.00 | 0.00 | 0.00 | 76 | 1014.7 |
| 20260503205219 | 62 | 1 | 4.3 | 9.6 | 0.00 | 0.00 | 0.00 | 76 | 1014.7 |
| 20260503204319 | 62 | 1 | 4.3 | 7.8 | 0.00 | 0.00 | 0.00 | 76 | 1014.8 |
| 20260503203419 | 62 | 1 | 3.5 | 7.8 | 0.00 | 0.00 | 0.00 | 76 | 1014.9 |